Change the Weather History Date:

Thursday, February 20, 2014

  Actual Average (KMRF) Record (KMRF)
Temperature  
Mean Temperature 68 °F -  
Max Temperature 80 °F 59 °F 78 °F (2011)
Min Temperature 55 °F 29 °F -2 °F (1998)
Cooling Degree Days 2    
Growing Degree Days 18 (Base 50)    
Moisture  
Dew Point 11 °F    
Average Humidity 13    
Maximum Humidity 20    
Minimum Humidity 5    
Precipitation  
Precipitation 0.00 in - - ()
Sea Level Pressure  
Sea Level Pressure 29.92 in    
Wind  
Wind Speed 7 mph (NW)    
Max Wind Speed 21 mph    
Max Gust Speed 31 mph    
Visibility 10 miles    
Events      
Averages and records for this station are not official NWS values.
T = Trace of Precipitation, MM = Missing Value Source: NWS Daily Summary

Daily Weather History Graph

Daily Weather History Graph

Search for Another Location

Airport or City:

Trip Planner

Search our weather history database for the weather conditions in past years. The results will help you decide how hot, cold, wet, or windy it might be!

Date:

Astronomy

Feb. 20, 2014 Rise Set
Actual Time 7:32 AM CST 6:50 PM CST
Civil Twilight 7:08 AM CST 7:14 PM CST
Nautical Twilight 6:40 AM CST 7:42 PM CST
Astronomical Twilight 6:12 AM CST 8:10 PM CST
Moon No Moon Rise 10:43 AM CST (2/20)
Length of Visible Light 12h 06m
Length of Day
11h 18m
Waning Gibbous, 70% of the Moon is Illuminated
Feb 20
Waning Gibbous
Feb 22
Last Quarter
Mar 1
New
Mar 8
First Quarter
Mar 16
Full

Hourly Weather History & Observations

Time (CST) Temp. Dew Point Humidity Pressure Visibility Wind Dir Wind Speed Gust Speed Precip Events Conditions
12:15 AM 59.9 °F 13.6 °F 16% 29.78 in 10.0 mi NE 3.5 mph - N/A   Clear
12:35 AM 59.2 °F 12.4 °F 16% 29.78 in 10.0 mi Calm Calm - N/A   Clear
12:55 AM 60.6 °F 13.3 °F 16% 29.78 in 10.0 mi ENE 4.6 mph - N/A   Clear
1:15 AM 64.4 °F 14.0 °F 14% 29.78 in 10.0 mi Calm Calm - N/A   Clear
1:35 AM 62.1 °F 13.8 °F 15% 29.78 in 10.0 mi NE 4.6 mph - N/A   Clear
1:55 AM 60.4 °F 13.3 °F 16% 29.79 in 10.0 mi North 4.6 mph - N/A   Clear
2:15 AM 60.6 °F 13.5 °F 16% 29.79 in 10.0 mi North 9.2 mph - N/A   Clear
2:35 AM 59.9 °F 13.3 °F 16% 29.79 in 10.0 mi North 6.9 mph - N/A   Clear
2:55 AM 60.8 °F 13.6 °F 16% 29.79 in 10.0 mi North 6.9 mph - N/A   Clear
3:15 AM 60.8 °F 13.6 °F 16% 29.79 in 10.0 mi Calm Calm - N/A   Clear
3:35 AM 60.4 °F 13.6 °F 16% 29.79 in 10.0 mi North 4.6 mph - N/A   Clear
3:55 AM 58.5 °F 13.3 °F 17% 29.80 in 10.0 mi Calm Calm - N/A   Clear
4:15 AM 57.6 °F 13.3 °F 17% 29.81 in 10.0 mi Calm Calm - N/A   Clear
4:35 AM 57.7 °F 13.6 °F 18% 29.82 in 10.0 mi North 3.5 mph - N/A   Clear
4:55 AM 59.0 °F 14.0 °F 17% 29.83 in 10.0 mi North 8.1 mph - N/A   Clear
5:15 AM 59.5 °F 14.0 °F 17% 29.84 in 10.0 mi North 6.9 mph - N/A   Clear
5:35 AM 58.8 °F 13.8 °F 17% 29.84 in 10.0 mi North 4.6 mph - N/A   Clear
5:55 AM 58.3 °F 13.8 °F 17% 29.85 in 10.0 mi North 5.8 mph - N/A   Clear
6:15 AM 58.6 °F 13.8 °F 17% 29.86 in 10.0 mi Calm Calm - N/A   Clear
6:35 AM 55.4 °F 13.1 °F 19% 29.88 in 10.0 mi Calm Calm - N/A   Clear
6:55 AM 57.6 °F 13.3 °F 17% 29.88 in 10.0 mi West 4.6 mph - N/A   Clear
7:15 AM 57.2 °F 13.3 °F 18% 29.89 in 10.0 mi WSW 6.9 mph - N/A   Clear
7:35 AM 58.3 °F 14.9 °F 18% 29.90 in 10.0 mi WSW 8.1 mph - N/A   Clear
7:55 AM 56.1 °F 14.7 °F 20% 29.91 in 10.0 mi WSW 10.4 mph - N/A   Clear
8:15 AM 62.1 °F 17.6 °F 18% 29.91 in 10.0 mi West 10.4 mph 16.1 mph N/A   Clear
8:35 AM 67.8 °F 16.5 °F 14% 29.93 in 10.0 mi WNW 16.1 mph 21.9 mph N/A   Clear
8:55 AM 70.5 °F 16.7 °F 13% 29.93 in 10.0 mi WNW 20.7 mph 28.8 mph N/A   Clear
9:15 AM 70.7 °F 16.5 °F 13% 29.95 in 10.0 mi WNW 16.1 mph 25.3 mph N/A   Clear
9:35 AM 69.8 °F 16.5 °F 13% 29.96 in 10.0 mi WNW 13.8 mph 21.9 mph N/A   Clear
9:55 AM 70.9 °F 16.9 °F 13% 29.97 in 10.0 mi West 16.1 mph 20.7 mph N/A   Clear
10:15 AM 71.6 °F 17.2 °F 13% 29.97 in 10.0 mi West 15.0 mph 19.6 mph N/A   Clear
10:35 AM 73.0 °F 17.4 °F 12% 29.98 in 10.0 mi West 19.6 mph 24.2 mph N/A   Clear
10:55 AM 74.3 °F 17.8 °F 12% 29.98 in 10.0 mi West 15.0 mph 24.2 mph N/A   Clear
12:35 PM 77.9 °F 8.8 °F 7% 30.00 in 10.0 mi West 19.6 mph 27.6 mph N/A   Clear
12:55 PM 78.4 °F 7.9 °F 7% 29.99 in 10.0 mi WNW 19.6 mph 26.5 mph N/A   Clear
2:15 PM 80.1 °F 5.0 °F 6% 29.96 in 10.0 mi West 18.4 mph 28.8 mph N/A   Clear
2:35 PM 80.2 °F 4.6 °F 5% 29.96 in 10.0 mi WNW 20.7 mph 31.1 mph N/A   Clear
5:15 PM 79.5 °F 4.6 °F 6% 29.97 in 10.0 mi WNW 12.7 mph 25.3 mph N/A   Clear
5:35 PM 78.4 °F 5.0 °F 6% 29.97 in 10.0 mi WNW 15.0 mph - N/A   Clear
5:55 PM 77.5 °F 4.8 °F 6% 29.97 in 10.0 mi West 11.5 mph - N/A   Clear
6:15 PM 76.1 °F 5.9 °F 7% 29.98 in 10.0 mi WNW 10.4 mph - N/A   Clear
6:35 PM 75.0 °F 6.4 °F 7% 29.99 in 10.0 mi West 9.2 mph - N/A   Clear
6:55 PM 73.0 °F 6.8 °F 8% 29.99 in 10.0 mi WNW 6.9 mph - N/A   Clear
7:15 PM 70.2 °F 6.6 °F 8% 30.00 in 10.0 mi West 6.9 mph - N/A   Clear
7:35 PM 68.9 °F 7.0 °F 9% 30.01 in 10.0 mi West 6.9 mph - N/A   Clear
7:55 PM 66.2 °F 7.0 °F 10% 30.02 in 10.0 mi North 6.9 mph - N/A   Clear
8:15 PM 65.3 °F 7.2 °F 10% 30.02 in 10.0 mi NNW 8.1 mph - N/A   Clear
8:35 PM 64.0 °F 7.5 °F 11% 30.03 in 10.0 mi North 6.9 mph - N/A   Clear
8:55 PM 62.8 °F 7.2 °F 11% 30.03 in 10.0 mi North 8.1 mph - N/A   Clear
9:15 PM 63.0 °F 7.7 °F 11% 30.03 in 10.0 mi North 9.2 mph - N/A   Clear
9:35 PM 63.1 °F 7.3 °F 11% 30.03 in 10.0 mi North 9.2 mph - N/A   Clear
9:55 PM 63.5 °F 6.3 °F 10% 30.03 in 10.0 mi North 9.2 mph - N/A   Clear
10:15 PM 63.9 °F 6.3 °F 10% 30.04 in 10.0 mi NNE 11.5 mph - N/A   Clear
10:35 PM 63.7 °F 5.9 °F 10% 30.04 in 10.0 mi NNE 10.4 mph 17.3 mph N/A   Clear
10:55 PM 63.3 °F 9.5 °F 12% 30.05 in 10.0 mi North 12.7 mph 18.4 mph N/A   Clear
11:15 PM 61.9 °F 10.8 °F 13% 30.06 in 10.0 mi NNE 11.5 mph - N/A   Clear
11:35 PM 61.2 °F 12.2 °F 15% 30.06 in 10.0 mi North 10.4 mph - N/A   Clear
11:55 PM 60.3 °F 13.1 °F 16% 30.07 in 10.0 mi NNE 10.4 mph - N/A   Clear